Wind_Speed
3 3 8 12 9 2 4 3 4 3 1 2 6 7 11 12 4 6 5 5 6 7 8 15 17 19 20 16 14 11 9 7 5 5 5 5 6 8 8 7 5 7 7 6
3 7 7 5 6 6 3 3 5 4 1 1 4 10 1 5 3 3 4 5 4 3 4 7 9 9 8 11 8 7 6 5 4 4 4 5 8 7 9 5 2 3 6 9
7 3 7 6 5 5 4 5 3 3 6 1 6 6 2 1 2 4 4 3 2 1 1 1 2 4 6 7 7 7 6 5 5 6 6 7 8 6 6 6 5 7 8 8
5 4 6 4 4 5 4 3 4 3 4 3 3 4 3 3 2 0 1 1 2 1 1 2 3 4 5 5 6 7 6 6 7 7 7 7 6 5 4 7 8 8 7 7
6 7 5 3 4 4 4 3 4 3 3 4 0 3 6 4 3 2 3 1 1 3 5 6 8 9 9 9 9 8 7 7 7 7 7 7 7 7 9 8 8 8 5 5
3 1 3 4 4 4 6 4 4 3 3 1 4 4 4 5 5 3 3 4 6 6 6 6 8 8 9 9 10 9 8 7 7 7 7 7 8 8 9 8 7 6 5 6
2 1 1 2 5 2 3 5 2 3 2 5 3 1 7 4 5 4 3 6 7 6 5 4 5 8 10 10 10 9 8 8 7 7 7 7 8 8 8 8 7 7 9 10
7 3 6 1 2 6 5 6 5 7 3 3 3 6 5 5 2 4 5 6 6 6 6 6 7 6 7 6 7 7 8 8 8 8 8 8 8 9 9 8 9 11 11 11
5 2 2 4 1 1 4 3 2 6 3 2 3 6 4 4 3 4 6 6 7 7 7 8 8 7 7 7 8 8 8 9 10 10 11 11 9 8 9 9 12 12 11 10
5 5 2 2 0 3 2 4 3 3 2 4 4 5 5 4 4 4 5 6 7 6 7 7 6 7 8 7 7 8 9 11 11 12 11 9 9 9 9 9 11 11 10 10
4 4 3 3 4 7 3 2 3 3 3 5 2 6 5 8 8 6 6 5 5 6 6 6 8 8 7 8 10 11 12 13 12 11 9 9 9 9 9 11 11 10 10 9
2 4 4 3 1 0 2 5 4 4 5 2 3 6 3 7 7 5 6 4 5 4 5 5 10 9 9 10 12 12 11 12 11 9 9 10 10 9 10 11 11 10 9 9
5 2 5 2 1 2 5 5 4 3 3 6 6 5 3 4 5 5 6 5 4 3 5 6 9 13 14 13 12 11 11 11 9 10 11 11 12 13 12 11 10 9 8 7
3 2 5 6 4 4 5 6 6 5 3 4 6 4 4 7 6 5 5 5 5 4 5 5 5 11 15 15 14 12 12 11 10 12 13 14 13 13 12 10 9 8 7 8
3 4 2 1 3 3 4 6 11 15 7 7 5 9 5 7 7 5 4 4 4 4 6 6 6 6 14 17 18 15 12 11 11 13 15 16 13 14 13 12 9 9 9 10
1 3 2 2 4 3 5 8 8 14 16 8 5 18 9 3 2 2 5 4 3 4 5 5 6 10 15 17 20 20 15 11 11 14 17 14 14 15 14 12 12 12 12 11
4 5 3 3 1 1 6 12 14 7 4 15 13 9 3 3 3 4 2 0 1 5 5 6 6 11 18 18 18 20 18 11 11 14 15 15 15 16 15 14 15 15 15 13
5 4 2 3 2 1 6 2 4 10 5 9 2 4 6 5 4 3 4 2 3 5 5 6 10 14 16 17 17 18 16 12 11 14 16 15 16 19 18 18 19 19 18 18
2 4 2 4 3 6 2 4 6 7 7 9 13 3 4 3 2 3 2 3 3 4 7 8 11 14 15 16 17 16 15 13 11 13 16 17 18 21 22 23 24 23 22 22
3 4 3 2 4 6 6 4 4 3 4 4 5 5 6 3 0 4 3 2 4 6 8 10 14 15 15 16 16 15 15 15 14 16 18 17 17 18 22 24 26 27 26 26
4 2 4 3 2 8 6 4 5 5 5 4 5 5 5 3 3 3 3 4 5 8 11 13 15 14 15 15 16 14 15 13 18 19 20 19 19 20 21 23 24 26 26 26
5 6 3 3 2 8 5 4 6 5 1 4 3 4 4 3 3 2 4 4 5 8 11 12 12 13 15 15 15 14 13 19 20 21 21 20 19 18 19 21 23 23 24 26
2 5 4 7 5 4 4 3 2 3 4 4 4 4 4 4 2 3 4 5 6 8 10 11 12 12 13 15 14 14 18 21 22 23 22 22 21 18 16 17 19 21 22 23
4 4 2 2 3 4 4 1 3 4 3 4 4 4 3 4 3 2 3 3 5 8 9 12 12 12 13 16 15 16 18 21 21 22 22 22 21 19 17 15 15 17 19 20
3 5 5 4 3 0 4 5 7 5 5 6 4 3 4 4 3 1 2 3 5 8 10 12 11 12 14 18 18 18 20 20 21 19 19 20 20 19 19 17 16 16 18 19
5 6 5 5 4 3 2 10 10 9 6 7 6 4 3 3 3 1 2 4 6 8 10 12 13 14 16 19 19 19 19 19 19 19 17 19 20 21 19 19 19 14 12 15
Wind_Direction
203 134 206 206 204 149 148 184 226 256 110 295 236 270 287 301 3 69 59 58 55 34 16 70 97 122 136 149 162 175 190 204 225 256 276 284 288 294 305 310 308 312 312 317
84 228 220 195 197 194 186 190 246 284 47 352 333 291 298 360 24 93 106 84 82 96 56 61 94 118 142 156 170 175 198 213 243 265 276 286 295 299 308 322 5 339 319 316
172 254 150 154 161 160 191 187 202 210 331 12 338 307 333 49 87 74 51 79 74 109 138 147 142 159 166 175 183 193 196 217 251 271 278 286 291 278 271 279 297 312 314 316
229 204 161 164 188 140 194 156 120 97 63 235 11 281 281 170 177 285 120 122 125 131 251 255 221 197 196 210 209 207 215 242 262 274 283 287 284 278 265 302 306 307 308 310
219 167 163 159 186 141 200 126 112 113 92 49 339 88 270 175 216 250 244 224 299 274 240 242 236 233 230 221 218 228 238 251 265 272 280 279 276 275 284 292 299 306 306 298
127 63 119 151 92 105 137 94 65 58 90 328 232 149 254 206 195 209 236 277 304 306 296 275 248 227 229 232 236 244 249 249 262 269 274 278 276 285 287 299 309 317 300 295
110 116 47 112 96 72 85 100 1 345 358 219 290 135 253 228 208 198 238 299 306 309 307 297 271 248 256 252 244 244 240 248 266 269 274 275 278 281 287 297 302 296 295 303
156 236 170 167 173 173 181 157 168 205 196 257 347 232 257 220 245 263 264 264 295 335 322 301 287 275 265 259 232 234 243 256 263 267 272 275 278 278 279 289 288 287 295 303
136 135 72 55 33 103 189 183 146 101 34 72 231 285 280 142 339 332 341 350 333 326 323 312 312 283 277 254 244 252 257 262 266 270 277 279 272 263 276 284 283 286 291 300
181 110 183 148 116 30 138 159 81 2 140 249 281 276 232 215 232 297 316 313 318 325 329 323 318 313 291 269 259 259 265 270 271 274 277 274 271 268 278 275 278 284 289 287
129 100 127 117 205 175 151 155 70 113 134 170 248 260 214 179 188 211 261 276 287 307 320 315 323 322 299 273 269 272 273 273 272 271 269 274 283 273 270 272 276 279 282 295
149 107 144 211 240 158 188 188 149 134 229 212 161 272 203 178 195 198 264 281 278 273 305 317 345 336 314 295 286 283 280 273 268 269 279 286 282 268 265 271 275 276 281 287
173 168 123 129 174 210 218 182 143 134 93 202 151 258 336 280 288 244 246 267 271 294 334 335 351 349 354 343 319 301 285 278 278 280 280 278 271 265 265 264 271 273 278 280
90 129 167 188 184 137 189 186 172 139 142 189 226 268 281 255 237 282 258 258 262 279 318 315 333 336 343 351 336 311 293 279 275 270 270 272 271 271 267 263 270 269 268 276
112 177 105 14 85 144 182 187 194 210 200 186 235 211 230 219 223 233 234 279 288 291 345 339 319 316 330 344 342 334 304 282 272 269 269 269 275 269 265 263 274 262 253 258
27 125 95 331 2 79 246 240 226 222 235 254 237 280 206 235 261 259 261 265 271 282 302 318 307 325 329 342 338 334 327 308 273 264 266 272 269 268 265 265 263 261 262 262
143 136 104 254 56 96 301 227 199 214 241 218 232 231 189 239 245 251 346 35 312 290 286 305 305 322 330 340 340 334 333 310 285 267 268 270 272 270 266 263 259 259 262 269
136 117 101 168 45 303 240 203 179 207 234 217 286 230 204 191 224 171 164 106 319 277 282 295 315 337 339 340 340 332 330 325 293 281 279 278 274 271 270 265 262 262 263 266
109 124 117 144 204 290 291 217 164 162 271 201 218 206 235 266 115 245 222 210 226 252 287 300 339 340 340 345 343 338 333 333 326 309 303 296 285 277 273 268 266 266 267 268
124 88 114 100 143 216 242 248 179 139 296 206 166 188 176 174 10 255 265 289 287 346 349 350 347 346 353 353 349 346 343 342 345 334 321 313 303 288 279 276 273 273 272 272
147 138 174 171 214 285 241 202 159 93 239 183 166 169 164 181 200 219 293 340 2 358 358 352 351 350 353 356 354 348 344 347 333 330 324 311 301 293 287 282 277 275 273 272
155 149 182 135 167 268 167 90 163 209 45 154 184 180 153 192 299 319 323 324 359 1 356 354 345 342 351 357 357 344 340 334 333 329 328 327 320 308 295 287 282 278 276 274
227 180 181 188 212 224 222 184 230 156 144 206 150 184 159 150 108 16 351 7 4 359 348 345 339 336 348 355 354 339 333 336 334 333 332 332 329 323 315 303 291 284 278 274
243 172 199 81 273 221 201 201 160 171 140 142 121 132 122 121 86 34 356 10 355 351 348 341 340 340 341 347 347 343 339 340 337 335 336 337 334 330 327 319 307 292 282 273
197 137 196 263 255 306 214 205 159 140 117 116 103 117 124 124 101 62 355 2 345 338 340 342 339 336 335 344 345 348 346 345 342 336 338 338 339 337 331 329 319 301 294 283
185 190 177 219 208 178 203 174 151 150 157 153 140 127 100 99 115 49 9 355 339 332 340 340 341 339 341 346 347 348 350 348 346 334 334 334 335 334 330 325 322 333 310 301
Height
795 803 803 795 797 790 792 794 795 796 795 794 799 802 795 787 786 792 794 794 793 792 790 787 785 785 788 792 794 795 796 797 797 798 798 799 800 800 800 799 798 798 796 796
800 800 786 789 793 796 795 798 803 799 797 798 801 800 794 796 795 793 793 794 793 792 792 792 792 792 793 794 795 796 796 797 797 798 798 798 799 799 799 798 797 796 795 793
792 780 781 784 790 795 797 800 799 801 806 801 809 803 799 795 795 795 795 793 793 792 793 794 795 794 794 794 795 795 795 796 797 797 797 797 797 796 797 796 795 794 794 792
787 780 781 784 787 795 800 799 801 805 824 817 811 823 797 794 795 793 794 796 794 793 793 793 793 793 794 793 794 794 795 795 795 795 795 794 794 795 795 794 793 793 793 791
781 785 784 790 785 789 800 802 804 810 829 842 818 850 801 796 789 787 791 792 792 792 793 793 792 791 792 793 793 793 793 793 793 793 793 793 793 792 792 792 791 791 791 790
783 782 785 787 790 794 801 806 809 818 829 837 828 826 798 801 798 788 792 792 794 794 792 791 791 791 791 792 792 791 791 791 791 791 791 790 791 790 790 789 788 788 788 787
785 788 790 788 796 798 807 809 849 843 844 836 818 821 792 790 794 794 796 797 796 792 790 790 789 789 789 788 789 789 788 789 789 789 789 788 788 787 787 786 786 786 786 785
789 800 794 793 795 798 804 807 816 825 836 830 815 828 789 800 804 811 806 804 794 791 791 789 787 786 786 786 786 786 787 786 787 786 786 786 784 784 783 783 783 784 783 782
789 792 797 799 799 798 803 810 807 832 864 841 829 801 785 787 802 805 802 795 794 794 791 789 785 785 784 784 784 784 784 784 784 783 783 782 780 780 780 780 781 780 780 778
772 789 794 801 800 800 797 801 813 838 851 843 827 821 794 802 807 801 804 798 796 794 791 788 784 782 782 781 781 781 781 781 781 780 779 778 777 776 776 777 777 777 776 776
770 782 801 802 811 801 800 809 809 812 831 842 848 814 807 799 803 804 801 796 797 795 792 788 783 780 779 779 779 779 778 777 777 777 776 774 773 773 773 774 773 773 773 771
766 783 795 801 807 805 807 808 807 821 830 846 840 809 809 800 804 806 797 793 795 793 791 788 783 779 777 776 775 774 774 774 774 773 772 772 771 771 772 771 770 770 768 767
767 782 792 796 802 804 795 797 811 826 828 827 823 804 812 820 809 797 798 796 793 791 789 786 783 780 776 774 772 771 771 771 771 770 770 770 770 769 768 768 767 765 764 765
764 781 782 769 784 805 799 796 799 805 826 840 816 815 810 806 802 798 797 794 795 793 789 787 783 780 777 774 772 769 768 767 767 768 768 767 767 766 766 765 764 763 762 762
773 781 791 797 782 788 818 799 792 784 808 792 807 800 802 797 795 795 795 796 793 792 787 785 783 779 776 772 770 768 765 764 764 764 764 763 764 763 762 761 760 760 759 758
776 784 802 800 821 831 796 809 807 788 781 802 815 786 788 796 806 798 797 796 795 794 788 784 781 776 773 770 769 767 763 761 761 760 760 760 760 759 758 758 758 757 756 754
778 791 799 801 823 813 807 790 793 795 807 769 777 774 798 796 799 797 794 793 787 790 787 783 779 775 772 769 767 765 761 759 758 757 756 756 756 755 755 755 754 753 752 751
785 790 800 819 820 813 775 815 802 785 799 792 799 800 792 791 792 788 785 784 785 787 783 780 777 774 771 768 765 763 760 757 755 754 753 752 752 751 750 750 749 748 748 747
777 784 803 816 819 791 760 796 790 780 769 779 772 795 798 797 794 788 783 785 784 782 780 778 776 773 769 766 763 760 758 756 753 751 750 749 748 746 745 744 743 742 742 741
772 778 792 832 827 818 777 778 779 784 774 786 787 790 787 776 785 790 783 782 780 779 778 777 774 772 767 764 761 758 756 754 751 749 747 745 743 741 739 737 737 737 736 735
771 778 789 820 835 796 773 768 767 775 768 785 785 785 781 781 783 784 782 780 778 778 777 776 773 770 767 763 760 757 755 753 750 747 743 740 738 735 733 731 731 730 729 728
778 785 801 806 806 791 766 765 765 767 774 779 784 783 781 784 784 782 780 779 777 777 776 775 773 769 766 763 760 757 754 751 747 743 739 735 732 729 727 726 724 724 723 722
775 768 775 771 765 762 766 763 767 770 769 776 773 777 774 775 777 778 778 777 777 777 776 775 772 769 766 763 760 756 753 749 744 739 735 731 728 725 723 720 718 717 717 716
766 762 766 764 757 762 765 764 764 765 764 765 768 770 771 772 775 778 778 777 777 776 775 774 771 767 764 761 759 756 752 747 742 737 733 729 726 721 718 716 714 712 711 710
754 757 755 758 753 757 757 755 757 763 765 767 769 771 772 773 776 777 778 777 777 776 774 773 770 766 763 760 757 754 750 745 741 736 732 727 724 720 716 713 710 708 706 705
749 747 749 745 737 738 740 746 754 759 763 766 768 772 774 774 776 777 777 778 778 776 774 771 768 765 761 758 755 752 748 744 739 735 730 727 723 719 716 711 707 706 703 701